Inicio / NACIONALES / TN / Clase 2 / BLOTTA ABRIÓ EL JUEGO
Manfrey

BLOTTA ABRIÓ EL JUEGO

El equipo Tito Bessone Toyota Racing comenzó la fecha coronación del Turismo Nacional, dominando el primer entrenamiento con Renzo Blotta de la Clase 2, disputado en el autódromo Rosario.

El piloto de Comodoro Rivadavia finalmente se quedó con el mejor registro en el primer ensayo tras marcar 1m47s726, superando por 0s970 a Alex Conci. Sebastián Pérez, Lucas Petracchini y Juan Ignacio Canela completaron los primeros clasificados en la tanda que abrió la actividad del Gran Premio Coronación, al cual ya llega consagrado Campeón Argentino el cordobés Matías Cravero, ordenado en la 25º posición al cabo del primer entrenamiento.

Todos los tiempos:

1 15 RENZO BLOTTA TOYOTA ETIOS 10 1:47.726
2 61 ALEX CONCI TOYOTA ETIOS 9 1:48.696 0.970
3 16 SEBASTIAN PEREZ CHEVROLET ONIX 11 1:48.752 1.026
4 111 LUCAS PETRACCHINI TOYOTA ETIOS 10 1:48.970 1.244
5 3 JUAN IGNACIO CANELA VW TREND 9 1:48.976 1.250
6 9 ALEJO BORGIANI TOYOTA ETIOS 8 1:49.007 1.281
7 144 TOMAS POZNER TOYOTA ETIOS 10 1:49.225 1.499
8 151 BAUTISTA BUSTOS TOYOTA ETIOS 10 1:49.231 1.505
9 54 FACUNDO ROTONDO TOYOTA ETIOS 11 1:49.586 1.860
10 4 MIGUEL CIAURRO VW TREND 9 1:49.596 1.870
11 19 MARCOS FERNANDEZ NISSAN MARCH 10 1:49.691 1.965
12 12 FACUNDO LEANEZ TOYOTA ETIOS 10 1:49.733 2.007
13 116 ALEJANDRO TORRISI NISSAN MARCH 9 1:49.777 2.051
14 91 INAKI BEITIA TOYOTA ETIOS 12 1:49.862 2.136
15 114 MATIAS SIGNORELLI NISSAN MARCH 10 1:49.885 2.159
16 6 IGNACIO PROCACITTO VW TREND 9 1:49.936 2.210
17 8 FACUNDO BUSTOS NISSAN MARCH 10 1:49.951 2.225
18 7 LUCAS YEROBI FIESTA KINETIC 10 1:50.120 2.394
19 115 BRUNO MIGLIO NISSAN MARCH 10 1:50.126 2.400
20 155 FRANCISCO CALO FIESTA KINETIC 10 1:50.130 2.404
21 89 TOMAS ARAMBURU PEUGEOT 208 11 1:50.148 2.422
22 11 MAXIMILIANO BESTANI TOYOTA ETIOS 10 1:50.178 2.452
23 32 GABRIEL SCORDIA FIESTA KINETIC 10 1:50.222 2.496
24 38 MATIAS CRAVERO FIESTA KINETIC 9 1:50.232 2.506
25 45 JOSE LUIS ARRATE TOYOTA ETIOS 11 1:50.343 2.617
26 136 MARTIN BLASIG TOYOTA ETIOS 12 1:50.430 2.704
27 99 JUAN DAMIANI TOYOTA ETIOS 10 1:50.532 2.806
28 13 CHRISTIAN BODRATO MIONETT FIESTA KINETIC 9 1:50.567 2.841
29 113 HORACIO EVOLO FIESTA KINETIC 10 1:50.644 2.918
30 21 DIEGO LEANEZ TOYOTA ETIOS 11 1:50.688 2.962
31 66 JOAQUIN TORRES TOYOTA ETIOS 10 1:50.956 3.230
32 150 JUAN MARTIN ELUCHANS TOYOTA ETIOS 9 1:51.142 3.416
33 24 MARCELO GUEVARA NISSAN MARCH 2 1:51.365 3.639
34 123 MARTIN FIERROS FIESTA KINETIC 7 1:51.587 3.861
35 199 LUCAS BARBALARGA VW TREND 10 1:51.842 4.116
36 161 DIEGO FARINA VW TREND 11 1:51.904 4.178
37 311 FRANCO BOSIO TOYOTA ETIOS 6 1:56.623 8.897
38 59 AGUSTIN BONOMO DS3 2 2:02.870 15.144

 

 

 

 

 

 

 

 

Fuente y foto: apat.org.ar

JEA

Te puede interesar

DESPUÉS DE MUCHO, ANTONINO CAMBIA DE EQUIPO EN EL TN

Antonino García fue confirmado por el equipo Arana Ingeniería Sport como uno de sus pilotos …